Massena, NY

7:10 AM EDT on September 19, 2019 (GMT -0400)
Massena International-Richards

Weather History for KMSS - July, 2019

Change the Weather History Date:

Monday, July 15, 2019

  Actual Average Record
Temperature  
Mean Temperature 68 °F 69 °F  
Max Temperature 81 °F 80 °F 93 °F (1979)
Min Temperature 54 °F 58 °F 45 °F (1960)
Degree Days  
Heating Degree Days 0 1  
Month to date heating degree days 0 15  
Since 1 June heating degree days 97 111  
Since 1 July heating degree days 0 15  
Cooling Degree Days 3 5  
Month to date cooling degree days 106 72  
Year to date cooling degree days 165 161  
Since 1 June cooling degree days 164 147  
Growing Degree Days 18 (Base 50)    
Moisture  
Dew Point 56 °F    
Average Humidity 68    
Maximum Humidity 93    
Minimum Humidity 42    
Precipitation  
Precipitation 0.00 in 0.11 in 1.60 in (2004)
Month to date precipitation 0.92 1.67  
Year to date precipitation 15.41 17.12  
Sea Level Pressure  
Sea Level Pressure 30.06 in    
Wind  
Wind Speed 4 mph (WSW)    
Max Wind Speed 10 mph    
Max Gust Speed 14 mph    
Visibility 10 miles    
Events      
T = Trace of Precipitation, MM = Missing Value Source: NWS Daily Summary

Daily Weather History Graph

Daily Weather History Graph

Search for Another Location

Airport or City:

Astronomy

Jul. 15, 2019 Rise Set
Actual Time 5:27 AM EDT 8:43 PM EDT
Civil Twilight 4:51 AM EDT 9:18 PM EDT
Nautical Twilight 4:04 AM EDT 10:05 PM EDT
Astronomical Twilight 3:06 AM EDT 11:02 PM EDT
Moon 7:59 PM EDT (7/15) 4:11 AM EDT (7/15)
Length of Visible Light 16h 27m
Length of Day
15h 16m
Waxing Gibbous, 98% of the Moon is Illuminated
Jul 15
Waxing Gibbous
Jul 16
Full
Jul 24
Last Quarter
Jul 31
New
Aug 7
First Quarter

Hourly Weather History & Observations

Time (EDT) Temp. Heat Index Dew Point Humidity Pressure Visibility Wind Dir Wind Speed Gust Speed Precip Events Conditions
12:53 AM 57.0 °F - 55.0 °F 93% 30.05 in 10.0 mi SSW 5.8 mph - N/A   Clear
1:53 AM 57.0 °F - 54.0 °F 89% 30.06 in 10.0 mi Calm Calm - N/A   Clear
2:53 AM 57.0 °F - 54.0 °F 89% 30.06 in 10.0 mi Calm Calm - N/A   Clear
3:53 AM 55.9 °F - 53.1 °F 90% 30.06 in 10.0 mi WSW 3.5 mph - N/A   Clear
4:53 AM 55.0 °F - 53.1 °F 93% 30.07 in 10.0 mi Calm Calm - N/A   Clear
5:53 AM 55.0 °F - 53.1 °F 93% 30.08 in 10.0 mi SW 3.5 mph - N/A   Clear
6:53 AM 57.9 °F - 55.0 °F 90% 30.09 in 10.0 mi SSW 4.6 mph - N/A   Clear
7:53 AM 61.0 °F - 55.9 °F 83% 30.09 in 10.0 mi Calm Calm - N/A   Clear
8:53 AM 68.0 °F - 57.9 °F 70% 30.09 in 10.0 mi WSW 4.6 mph - N/A   Clear
9:53 AM 72.0 °F - 57.0 °F 59% 30.09 in 10.0 mi Variable 5.8 mph - N/A   Clear
10:53 AM 75.0 °F - 57.9 °F 55% 30.09 in 10.0 mi Variable 4.6 mph - N/A   Clear
11:53 AM 75.9 °F - 54.0 °F 46% 30.09 in 10.0 mi WNW 6.9 mph - N/A   Clear
12:53 PM 77.0 °F - 54.0 °F 45% 30.08 in 10.0 mi WNW 8.1 mph - N/A   Clear
1:53 PM 77.0 °F - 55.9 °F 48% 30.07 in 10.0 mi North - - N/A   Partly Cloudy
2:53 PM 79.0 °F - 55.0 °F 44% 30.06 in 10.0 mi WNW 6.9 mph - N/A   Clear
3:53 PM 80.1 °F 80.2 °F 55.9 °F 43% 30.04 in 10.0 mi WSW 8.1 mph - N/A   Clear
4:53 PM 80.1 °F 80.1 °F 55.0 °F 42% 30.03 in 10.0 mi NW 4.6 mph - N/A   Clear
5:53 PM 80.1 °F 80.2 °F 55.9 °F 43% 30.03 in 10.0 mi WNW 5.8 mph - N/A   Clear
6:53 PM 79.0 °F - 60.1 °F 52% 30.01 in 10.0 mi SSW 3.5 mph - N/A   Clear
7:53 PM 75.9 °F - 61.0 °F 60% 30.02 in 10.0 mi SW 9.2 mph - N/A   Clear
8:53 PM 72.0 °F - 61.0 °F 68% 30.02 in 10.0 mi SW 6.9 mph - N/A   Clear
9:53 PM 68.0 °F - 60.1 °F 76% 30.03 in 10.0 mi SSW 4.6 mph - N/A   Clear
10:53 PM 66.0 °F - 60.1 °F 81% 30.03 in 10.0 mi South 5.8 mph - N/A   Clear
11:53 PM 63.0 °F - 57.9 °F 84% 30.04 in 10.0 mi Calm Calm - N/A   Clear